Time,TemperatureF,DewpointF,PressureIn,WindDirection,WindDirectionDegrees,WindSpeedMPH,WindSpeedGustMPH,Humidity,HourlyPrecipIn,Conditions,Clouds,dailyrainin,SoftwareType,DateUTC
2013-08-15 00:00:00,52.0,49.0,30.02,West,264,1.0,5.0,89,0.00,,,-99.99,,2013-08-15 04:00:00,
2013-08-15 00:43:00,52.0,49.0,30.02,West,264,1.0,5.0,89,0.00,,,-99.99,,2013-08-15 04:43:00,
2013-08-15 00:52:00,52.0,49.0,30.02,West,264,1.0,5.0,89,0.00,,,-99.99,,2013-08-15 04:52:00,
2013-08-15 01:00:00,51.0,48.0,30.03,SSW,212,0.0,2.0,91,0.00,,,-99.99,,2013-08-15 05:00:00,
2013-08-15 01:42:00,51.0,48.0,30.03,SSW,212,0.0,2.0,91,0.00,,,-99.99,,2013-08-15 05:42:00,
2013-08-15 01:52:00,51.0,48.0,30.03,SSW,212,0.0,2.0,91,0.00,,,-99.99,,2013-08-15 05:52:00,
2013-08-15 02:00:00,49.0,47.0,30.04,SSW,212,0.0,0.0,92,0.00,,,-99.99,,2013-08-15 06:00:00,
2013-08-15 02:42:00,49.0,47.0,30.04,SSW,212,0.0,0.0,92,0.00,,,-99.99,,2013-08-15 06:42:00,
2013-08-15 02:52:00,49.0,47.0,30.04,SSW,212,0.0,0.0,92,0.00,,,-99.99,,2013-08-15 06:52:00,
2013-08-15 04:00:00,51.0,48.0,30.05,NNW,344,6.0,7.0,88,0.00,,,-99.99,,2013-08-15 08:00:00,
2013-08-15 04:42:00,51.0,48.0,30.05,NNW,344,6.0,7.0,88,0.00,,,-99.99,,2013-08-15 08:42:00,
2013-08-15 04:52:00,51.0,48.0,30.05,NNW,344,6.0,7.0,88,0.00,,,-99.99,,2013-08-15 08:52:00,
2013-08-15 05:00:00,52.0,48.0,30.05,North,3,4.0,8.0,88,0.00,,,-99.99,,2013-08-15 09:00:00,
2013-08-15 05:42:00,52.0,48.0,30.05,North,3,4.0,8.0,88,0.00,,,-99.99,,2013-08-15 09:42:00,
2013-08-15 05:53:00,52.0,48.0,30.05,North,3,4.0,8.0,88,0.00,,,-99.99,,2013-08-15 09:53:00,
2013-08-15 06:00:00,51.0,47.0,30.06,NE,52,2.0,9.0,87,0.00,,,-99.99,,2013-08-15 10:00:00,
2013-08-15 06:42:00,51.0,47.0,30.06,NE,52,2.0,9.0,87,0.00,,,-99.99,,2013-08-15 10:42:00,
2013-08-15 06:52:00,51.0,47.0,30.06,NE,52,2.0,9.0,87,0.00,,,-99.99,,2013-08-15 10:52:00,
2013-08-15 07:00:00,54.0,48.0,30.09,NE,38,3.0,6.0,81,0.00,,,-99.99,,2013-08-15 11:00:00,
2013-08-15 07:42:00,54.0,48.0,30.09,NE,38,3.0,6.0,81,0.00,,,-99.99,,2013-08-15 11:42:00,
2013-08-15 07:52:00,54.0,48.0,30.09,NE,38,3.0,6.0,81,0.00,,,-99.99,,2013-08-15 11:52:00,
2013-08-15 08:00:00,59.0,49.0,30.10,NNE,33,3.0,7.0,70,0.00,,,-99.99,,2013-08-15 12:00:00,
2013-08-15 08:42:00,59.0,49.0,30.10,NNE,33,3.0,7.0,70,0.00,,,-99.99,,2013-08-15 12:42:00,
2013-08-15 08:52:00,59.0,49.0,30.10,NNE,33,3.0,7.0,70,0.00,,,-99.99,,2013-08-15 12:52:00,
2013-08-15 09:00:00,63.0,49.0,30.11,North,3,8.0,11.0,62,0.00,,,-99.99,,2013-08-15 13:00:00,
2013-08-15 09:42:00,63.0,49.0,30.11,North,3,8.0,11.0,62,0.00,,,-99.99,,2013-08-15 13:42:00,
2013-08-15 09:52:00,63.0,49.0,30.11,North,3,8.0,11.0,62,0.00,,,-99.99,,2013-08-15 13:52:00,
2013-08-15 10:00:00,65.0,48.0,30.11,NNE,27,7.0,14.0,54,0.00,,,-99.99,,2013-08-15 14:00:00,
2013-08-15 10:48:00,65.0,48.0,30.11,NNE,27,7.0,14.0,54,0.00,,,-99.99,,2013-08-15 14:48:00,
2013-08-15 10:56:00,65.0,48.0,30.11,NNE,27,7.0,14.0,54,0.00,,,-99.99,,2013-08-15 14:56:00,
2013-08-15 11:00:00,68.0,47.0,30.11,NW,326,5.0,12.0,48,0.00,,,-99.99,,2013-08-15 15:00:00,
2013-08-15 11:43:00,68.0,47.0,30.11,NW,326,5.0,12.0,48,0.00,,,-99.99,,2013-08-15 15:43:00,
2013-08-15 11:54:00,68.0,47.0,30.11,NW,326,5.0,12.0,48,0.00,,,-99.99,,2013-08-15 15:54:00,
2013-08-15 12:00:00,68.0,46.0,30.11,NNE,22,4.0,13.0,45,0.00,,,-99.99,,2013-08-15 16:00:00,
2013-08-15 12:44:00,68.0,46.0,30.11,NNE,22,4.0,13.0,45,0.00,,,-99.99,,2013-08-15 16:44:00,
2013-08-15 12:55:00,68.0,46.0,30.11,NNE,22,4.0,13.0,45,0.00,,,-99.99,,2013-08-15 16:55:00,
2013-08-15 13:00:00,-999.0,-99.9,30.08,NNE,18,8.0,12.0,-999,-99.99,,,-99.99,,2013-08-15 17:00:00,
2013-08-15 14:00:00,-999.0,-99.9,30.07,NNE,30,2.0,14.0,-999,0.00,,,-99.99,,2013-08-15 18:00:00,
2013-08-15 14:36:00,-999.0,-99.9,30.07,NNE,30,2.0,14.0,-999,0.00,,,-99.99,,2013-08-15 18:36:00,
2013-08-15 15:34:00,-999.0,-99.9,30.07,NW,307,5.0,16.0,-999,-99.99,,,-99.99,,2013-08-15 19:34:00,
2013-08-15 20:00:00,63.0,53.0,30.07,South,182,4.0,5.0,70,0.00,,,-99.99,,2013-08-16 00:00:00,
2013-08-15 20:46:00,63.0,53.0,30.07,South,182,4.0,5.0,70,0.00,,,-99.99,,2013-08-16 00:46:00,
2013-08-15 20:52:00,63.0,53.0,30.07,South,182,4.0,5.0,70,0.00,,,-99.99,,2013-08-16 00:52:00,
2013-08-15 21:00:00,58.0,54.0,30.09,SSW,208,3.0,6.0,85,0.00,,,-99.99,,2013-08-16 01:00:00,
2013-08-15 21:43:00,-999.0,-99.9,30.09,SSW,208,3.0,-999.0,-999,-99.99,,,-99.99,,2013-08-16 01:43:00,
2013-08-15 21:54:00,58.0,54.0,30.09,SSW,208,3.0,6.0,85,0.00,,,-99.99,,2013-08-16 01:54:00,
2013-08-15 22:00:00,56.0,52.0,30.12,South,178,2.0,3.0,84,0.00,,,-99.99,,2013-08-16 02:00:00,
2013-08-15 22:44:00,56.0,52.0,30.12,South,178,2.0,3.0,84,0.00,,,-99.99,,2013-08-16 02:44:00,
2013-08-15 22:52:00,56.0,52.0,30.12,South,178,2.0,3.0,84,0.00,,,-99.99,,2013-08-16 02:52:00,
2013-08-15 23:00:00,54.0,51.0,30.11,SSW,201,0.0,3.0,88,0.00,,,-99.99,,2013-08-16 03:00:00,
2013-08-15 23:43:00,54.0,51.0,30.11,SSW,201,0.0,3.0,88,0.00,,,-99.99,,2013-08-16 03:43:00,
2013-08-15 23:53:00,54.0,51.0,30.11,SSW,201,0.0,3.0,88,0.00,,,-99.99,,2013-08-16 03:53:00,